Location: Follega
(52.8850°N, 5.7362°E)
Time: 04:19:10
(UTC+00:00)

Cosmos 1340 Rocket - Visible Passes

Search period start: 04 August 2021 00:00
Search period end: 14 August 2021 00:00
Orbit: 528 x 558 km, 81.2° (Epoch: 03 August)

Date Brightness Start Highest point End Pass type
(mag) Time Alt. Az. Time Alt. Az. Time Alt. Az.
04 Aug 4.2 00:17:07 24° WSW 00:18:26 30° WNW 00:21:58 10° N visible
04 Aug 3.7 22:35:07 30° ESE 22:35:33 31° E 22:39:05 10° NNE visible
05 Aug 4.3 00:10:41 23° W 00:12:00 29° WNW 00:15:29 10° N visible
05 Aug 3.7 22:28:39 32° ESE 22:29:05 33° E 22:32:39 10° NNE visible
06 Aug 4.3 00:04:14 23° W 00:05:33 28° WNW 00:09:01 10° N visible
06 Aug 3.6 22:22:12 33° ESE 22:22:37 34° E 22:26:14 10° NNE visible
06 Aug 4.4 23:57:46 22° W 23:59:07 27° WNW 00:02:32 10° N visible
07 Aug 3.5 22:15:43 35° ESE 22:16:09 36° E 22:19:48 10° NNE visible
07 Aug 4.5 23:51:17 21° W 23:52:40 26° WNW 23:56:03 10° N visible
08 Aug 3.4 22:09:13 36° ESE 22:09:41 38° E 22:13:22 10° NNE visible
08 Aug 4.6 23:44:47 20° W 23:46:15 25° WNW 23:49:34 10° N visible
09 Aug 3.3 22:02:43 37° ESE 22:03:13 39° E 22:06:56 10° NNE visible
09 Aug 4.7 23:38:17 19° W 23:39:48 24° WNW 23:43:05 10° N visible
10 Aug 3.3 21:56:12 39° ESE 21:56:45 41° E 22:00:31 10° NNE visible
10 Aug 4.7 23:31:46 18° W 23:33:22 23° WNW 23:36:37 10° N visible
11 Aug 3.2 21:49:39 40° ESE 21:50:17 43° E 21:54:05 10° NNE visible
11 Aug 4.8 23:25:13 17° W 23:26:57 22° WNW 23:30:08 10° N visible
12 Aug 3.2 21:43:06 40° SE 21:43:50 45° E 21:47:40 10° NNE visible
12 Aug 4.9 23:18:39 16° W 23:20:31 21° WNW 23:23:38 10° NNW visible
13 Aug 3.1 21:36:31 40° SE 21:37:22 48° E 21:41:14 10° NNE visible
13 Aug 5.0 23:12:05 15° W 23:14:05 21° WNW 23:17:09 10° NNW visible
